Location: Alpha Ridge Park
(39.3209°N, 76.9128°W)
Time: 01:27:37
(UTC-04:00)

deb Explorer IX - Visible Passes

Search period start: 21 May 2019 00:00
Search period end: 31 May 2019 00:00
Orbit: 538 x 1115 km, 38.8° (Epoch: 20 May)

Date Brightness Start Highest point End Pass type
(mag) Time Alt. Az. Time Alt. Az. Time Alt. Az.
21 May ? 04:13:34 31° SW 04:15:11 49° SSE 04:19:28 10° E visible
22 May ? 03:52:50 43° SSW 03:53:35 50° SSE 03:57:46 10° E visible
23 May ? 03:32:05 51° SSE 03:32:05 51° SSE 03:36:05 10° E visible
23 May ? 05:14:33 10° W 05:18:41 85° S 05:23:17 10° E visible
24 May ? 03:11:19 41° ESE 03:11:19 41° ESE 03:14:26 10° E visible
24 May ? 04:52:59 10° W 04:57:05 85° S 05:01:33 10° E visible
25 May ? 02:50:34 29° E 02:50:34 29° E 02:52:47 10° E visible
25 May ? 04:31:57 13° W 04:35:29 85° S 04:39:50 10° E visible
26 May ? 02:29:51 19° E 02:29:51 19° E 02:31:10 10° E visible
26 May ? 04:11:13 21° W 04:13:53 85° S 04:18:08 10° E visible
27 May ? 02:09:08 13° E 02:09:08 13° E 02:09:33 10° E visible
27 May ? 03:50:31 32° W 03:52:17 85° S 03:56:28 10° E visible
28 May ? 03:29:53 56° W 03:30:42 85° S 03:34:49 10° E visible
29 May ? 03:09:20 78° ESE 03:09:20 78° ESE 03:13:11 10° E visible
29 May ? 04:51:53 10° W 04:55:46 47° SSW 04:59:51 10° SE visible
30 May ? 02:48:58 39° E 02:48:58 39° E 02:51:34 10° E visible
30 May ? 04:30:21 10° W 04:34:10 46° SSW 04:38:10 10° SE visible
